Time,TemperatureF,DewpointF,PressureIn,WindDirection,WindDirectionDegrees,WindSpeedMPH,WindSpeedGustMPH,Humidity,HourlyPrecipIn,Conditions,Clouds,dailyrainin,SoftwareType,DateUTC
2013-01-31 00:03:00,55.1,54.8,29.42,SW,231,5.0,20.0,99,0.00,-RA,,0.00,WeatherDisplay:10.37,2013-01-31 05:03:00,
2013-01-31 00:13:00,55.4,55.1,29.41,WSW,245,3.0,17.0,99,0.00,-RA,,0.00,WeatherDisplay:10.37,2013-01-31 05:13:00,
2013-01-31 00:23:00,55.5,55.2,29.41,SW,227,5.0,18.0,99,0.00,-RA,,0.00,WeatherDisplay:10.37,2013-01-31 05:23:00,
2013-01-31 00:33:00,55.5,55.2,29.40,WSW,246,8.0,17.0,99,0.00,-RA,,0.00,WeatherDisplay:10.37,2013-01-31 05:33:00,
2013-01-31 00:43:00,55.5,55.2,29.40,SW,219,8.0,21.0,99,0.00,-RA,,0.00,WeatherDisplay:10.37,2013-01-31 05:43:00,
2013-01-31 00:53:00,55.1,54.8,29.37,SW,219,5.0,14.0,99,0.00,-RA,,0.00,WeatherDisplay:10.37,2013-01-31 05:53:00,
2013-01-31 01:03:00,55.3,55.0,29.36,WSW,240,5.0,23.0,99,0.01,-RA,,0.01,WeatherDisplay:10.37,2013-01-31 06:03:00,
2013-01-31 01:13:00,55.3,55.0,29.35,SSW,209,7.0,29.0,99,0.00,-RA,,0.01,WeatherDisplay:10.37,2013-01-31 06:13:00,
2013-01-31 01:23:00,55.4,55.1,29.34,SW,230,8.0,30.0,99,0.00,-RA,,0.01,WeatherDisplay:10.37,2013-01-31 06:23:00,
2013-01-31 01:33:00,55.4,55.1,29.34,SW,232,8.0,24.0,99,0.01,-RA,,0.02,WeatherDisplay:10.37,2013-01-31 06:33:00,
2013-01-31 01:43:00,55.4,55.1,29.33,SW,223,6.0,23.0,99,0.05,-RA,,0.07,WeatherDisplay:10.37,2013-01-31 06:43:00,
2013-01-31 01:53:00,55.4,55.1,29.31,SW,232,8.0,26.0,99,0.01,-RA,,0.08,WeatherDisplay:10.37,2013-01-31 06:53:00,
2013-01-31 02:03:00,55.5,55.2,29.31,WSW,240,6.0,20.0,99,0.01,-RA,,0.09,WeatherDisplay:10.37,2013-01-31 07:03:00,
2013-01-31 02:13:00,55.5,55.2,29.31,SW,222,6.0,21.0,99,0.01,-RA,,0.10,WeatherDisplay:10.37,2013-01-31 07:13:00,
2013-01-31 02:23:00,55.7,55.5,29.28,WSW,238,7.0,24.0,99,0.01,-RA,,0.11,WeatherDisplay:10.37,2013-01-31 07:23:00,
2013-01-31 02:33:00,56.0,55.7,29.27,SW,221,8.0,20.0,99,0.01,-RA,,0.12,WeatherDisplay:10.37,2013-01-31 07:33:00,
2013-01-31 02:43:00,56.3,56.0,29.26,SW,228,7.0,28.0,99,0.01,-RA,,0.13,WeatherDisplay:10.37,2013-01-31 07:43:00,
2013-01-31 02:53:00,56.3,56.0,29.23,SW,219,9.0,25.0,99,0.01,-RA,,0.14,WeatherDisplay:10.37,2013-01-31 07:53:00,
2013-01-31 03:03:00,56.4,56.1,29.23,WSW,242,10.0,23.0,99,0.02,-RA,,0.16,WeatherDisplay:10.37,2013-01-31 08:03:00,
2013-01-31 03:13:00,56.4,56.1,29.22,SW,226,5.0,31.0,99,0.01,-RA,,0.17,WeatherDisplay:10.37,2013-01-31 08:13:00,
2013-01-31 03:23:00,56.4,55.8,29.19,SW,233,8.0,30.0,98,0.02,-RA,,0.19,WeatherDisplay:10.37,2013-01-31 08:23:00,
2013-01-31 03:33:00,56.4,56.1,29.19,SW,235,9.0,26.0,99,0.02,-RA,,0.21,WeatherDisplay:10.37,2013-01-31 08:33:00,
2013-01-31 03:43:00,56.4,55.8,29.18,SW,226,9.0,31.0,98,0.01,-RA,,0.22,WeatherDisplay:10.37,2013-01-31 08:43:00,
2013-01-31 03:53:00,56.6,56.0,29.15,SW,225,12.0,27.0,98,0.01,-RA,,0.23,WeatherDisplay:10.37,2013-01-31 08:53:00,
2013-01-31 04:03:00,56.6,56.0,29.15,SW,232,8.0,24.0,98,0.02,-RA,,0.25,WeatherDisplay:10.37,2013-01-31 09:03:00,
2013-01-31 04:13:00,56.6,56.0,29.13,SW,221,7.0,26.0,98,0.01,RA,,0.26,WeatherDisplay:10.37,2013-01-31 09:13:00,
2013-01-31 04:23:00,56.8,56.2,29.12,SW,218,10.0,38.0,98,0.02,RA,,0.28,WeatherDisplay:10.37,2013-01-31 09:23:00,
2013-01-31 04:33:00,56.8,56.2,29.11,SW,226,8.0,27.0,98,0.02,RA,,0.30,WeatherDisplay:10.37,2013-01-31 09:33:00,
2013-01-31 04:43:00,56.8,56.2,29.10,SW,228,7.0,32.0,98,0.02,RA,,0.32,WeatherDisplay:10.37,2013-01-31 09:43:00,
2013-01-31 04:53:00,56.9,56.3,29.09,SW,220,9.0,24.0,98,0.03,RA,,0.35,WeatherDisplay:10.37,2013-01-31 09:53:00,
2013-01-31 05:03:00,56.9,56.3,29.08,WSW,246,9.0,36.0,98,0.06,RA,,0.41,WeatherDisplay:10.37,2013-01-31 10:03:00,
2013-01-31 05:13:00,56.9,56.3,29.06,SW,227,6.0,31.0,98,0.05, +RA,,0.46,WeatherDisplay:10.37,2013-01-31 10:13:00,
2013-01-31 05:23:00,57.1,56.5,29.05,SW,225,15.0,37.0,98,0.07, +RA,,0.53,WeatherDisplay:10.37,2013-01-31 10:23:00,
2013-01-31 05:33:00,57.1,56.5,29.04,SW,227,12.0,32.0,98,0.11, +RA,,0.64,WeatherDisplay:10.37,2013-01-31 10:33:00,
2013-01-31 05:43:00,57.1,56.5,29.01,SW,222,9.0,28.0,98,0.12, +RA,,0.76,WeatherDisplay:10.37,2013-01-31 10:43:00,
2013-01-31 05:53:00,57.1,56.5,29.00,SW,215,9.0,32.0,98,0.06, +RA,,0.82,WeatherDisplay:10.37,2013-01-31 10:53:00,
2013-01-31 06:03:00,57.1,56.5,29.01,SW,234,9.0,25.0,98,0.09, +RA,,0.91,WeatherDisplay:10.37,2013-01-31 11:03:00,
2013-01-31 06:13:00,57.1,56.5,29.02,WSW,248,7.0,22.0,98,0.02,RA,,0.93,WeatherDisplay:10.37,2013-01-31 11:13:00,
2013-01-31 06:23:00,56.4,55.8,29.04,WSW,244,8.0,20.0,98,0.03,RA,,0.96,WeatherDisplay:10.37,2013-01-31 11:23:00,
2013-01-31 06:33:00,55.4,54.6,29.04,SW,236,6.0,18.0,97,0.02,RA,,0.98,WeatherDisplay:10.37,2013-01-31 11:33:00,
2013-01-31 06:43:00,54.8,54.0,29.04,WSW,257,7.0,16.0,97,0.01,RA,,0.99,WeatherDisplay:10.37,2013-01-31 11:43:00,
2013-01-31 06:53:00,54.5,53.7,29.03,WSW,247,3.0,12.0,97,0.01,RA,,1.00,WeatherDisplay:10.37,2013-01-31 11:53:00,
2013-01-31 07:03:00,53.9,53.1,29.02,WSW,237,5.0,13.0,97,0.00,OVC,,1.00,WeatherDisplay:10.37,2013-01-31 12:03:00,
2013-01-31 07:13:00,53.9,53.1,29.01,SW,222,3.0,16.0,97,0.00,-RA,,1.00,WeatherDisplay:10.37,2013-01-31 12:13:00,
2013-01-31 07:23:00,53.9,53.3,28.98,WSW,240,8.0,16.0,98,0.00,-RA,,1.00,WeatherDisplay:10.37,2013-01-31 12:23:00,
2013-01-31 07:33:00,53.6,53.0,28.98,SW,234,3.0,14.0,98,0.00,-RA,,1.00,WeatherDisplay:10.37,2013-01-31 12:33:00,
2013-01-31 07:43:00,53.3,52.8,28.98,SW,225,2.0,13.0,98,0.00,-RA,,1.00,WeatherDisplay:10.37,2013-01-31 12:43:00,
2013-01-31 07:53:00,53.3,52.7,28.98,SW,232,6.0,15.0,98,0.00,-RA,,1.00,WeatherDisplay:10.37,2013-01-31 12:53:00,
2013-01-31 08:03:00,53.2,52.4,28.98,SW,236,6.0,15.0,97,0.00,-RA,,1.00,WeatherDisplay:10.37,2013-01-31 13:03:00,
2013-01-31 08:13:00,53.0,52.2,28.98,WSW,237,5.0,20.0,97,0.00,OVC,,1.00,WeatherDisplay:10.37,2013-01-31 13:13:00,
2013-01-31 08:23:00,53.0,51.9,28.96,WSW,243,5.0,15.0,96,0.00,OVC,,1.00,WeatherDisplay:10.37,2013-01-31 13:23:00,
2013-01-31 08:33:00,52.9,51.2,28.97,WSW,237,6.0,17.0,94,0.00,OVC,,1.00,WeatherDisplay:10.37,2013-01-31 13:33:00,
2013-01-31 08:43:00,52.7,50.7,28.98,WSW,239,8.0,24.0,93,0.00,OVC,,1.00,WeatherDisplay:10.37,2013-01-31 13:43:00,
2013-01-31 08:53:00,52.9,50.6,28.96,WSW,243,7.0,15.0,92,0.00,OVC,,1.00,WeatherDisplay:10.37,2013-01-31 13:53:00,
2013-01-31 09:03:00,53.0,50.4,28.96,WSW,248,6.0,16.0,91,0.00,OVC,,1.00,WeatherDisplay:10.37,2013-01-31 14:03:00,
2013-01-31 09:13:00,48.8,42.9,28.97,West,264,15.0,32.0,80,0.04,RA,,1.04,WeatherDisplay:10.37,2013-01-31 14:13:00,
2013-01-31 09:23:00,42.3,39.2,29.04,West,263,12.0,26.0,89,0.02, +RA,,1.06,WeatherDisplay:10.37,2013-01-31 14:23:00,
2013-01-31 09:33:00,40.9,38.8,29.05,West,267,12.0,26.0,92,0.00, +RA,,1.06,WeatherDisplay:10.37,2013-01-31 14:33:00,
2013-01-31 09:43:00,39.9,37.8,29.07,West,263,10.0,24.0,92,0.03,-RA,,1.09,WeatherDisplay:10.37,2013-01-31 14:43:00,
2013-01-31 09:53:00,39.6,37.5,29.07,West,281,6.0,25.0,92,0.00,-RA,,1.09,WeatherDisplay:10.37,2013-01-31 14:53:00,
2013-01-31 10:03:00,40.3,38.2,29.07,WSW,249,8.0,26.0,92,0.00,OVC,,1.09,WeatherDisplay:10.37,2013-01-31 15:03:00,
2013-01-31 10:13:00,40.7,38.3,29.08,WSW,253,7.0,20.0,91,0.00,SCT,,1.09,WeatherDisplay:10.37,2013-01-31 15:13:00,
2013-01-31 10:23:00,41.0,37.7,29.10,West,265,13.0,24.0,88,0.00,SCT,,1.09,WeatherDisplay:10.37,2013-01-31 15:23:00,
2013-01-31 10:33:00,41.3,37.7,29.11,West,262,7.0,20.0,87,0.00,SCT,,1.09,WeatherDisplay:10.37,2013-01-31 15:33:00,
2013-01-31 10:43:00,41.6,36.8,29.12,West,261,8.0,21.0,83,0.00,BKN,,1.09,WeatherDisplay:10.37,2013-01-31 15:43:00,
2013-01-31 10:53:00,41.4,36.6,29.12,West,270,9.0,20.0,83,0.00,BKN,,1.09,WeatherDisplay:10.37,2013-01-31 15:53:00,
2013-01-31 11:03:00,41.6,35.9,29.13,West,281,10.0,21.0,80,0.00,BKN,,1.09,WeatherDisplay:10.37,2013-01-31 16:03:00,
2013-01-31 11:13:00,41.6,35.2,29.13,West,265,13.0,24.0,78,0.00,OVC,,1.09,WeatherDisplay:10.37,2013-01-31 16:13:00,
2013-01-31 11:23:00,42.1,35.4,29.15,West,263,9.0,21.0,77,0.00,OVC,,1.09,WeatherDisplay:10.37,2013-01-31 16:23:00,
2013-01-31 11:33:00,42.3,34.9,29.15,West,266,12.0,29.0,75,0.00,OVC,,1.09,WeatherDisplay:10.37,2013-01-31 16:33:00,
2013-01-31 11:43:00,41.7,33.7,29.16,West,266,10.0,24.0,73,0.00,OVC,,1.09,WeatherDisplay:10.37,2013-01-31 16:43:00,
2013-01-31 11:53:00,41.6,33.2,29.17,West,263,13.0,37.0,72,0.00,OVC,,1.09,WeatherDisplay:10.37,2013-01-31 16:53:00,
2013-01-31 12:03:00,41.7,33.0,29.17,West,266,14.0,28.0,71,0.00,OVC,,1.09,WeatherDisplay:10.37,2013-01-31 17:03:00,
2013-01-31 12:13:00,40.7,32.4,29.17,West,277,9.0,26.0,72,0.00,BKN,,1.09,WeatherDisplay:10.37,2013-01-31 17:13:00,
2013-01-31 12:23:00,39.9,31.3,29.18,West,273,5.0,23.0,71,0.00,BKN,,1.09,WeatherDisplay:10.37,2013-01-31 17:23:00,
2013-01-31 12:33:00,39.9,30.2,29.18,West,270,14.0,25.0,68,0.00,BKN,,1.09,WeatherDisplay:10.37,2013-01-31 17:33:00,
2013-01-31 12:43:00,40.2,30.2,29.18,West,264,6.0,24.0,67,0.00,BKN,,1.09,WeatherDisplay:10.37,2013-01-31 17:43:00,
2013-01-31 12:53:00,40.4,29.6,29.19,West,265,13.0,22.0,65,0.00,BKN,,1.09,WeatherDisplay:10.37,2013-01-31 17:53:00,
2013-01-31 13:03:00,40.4,28.4,29.19,West,265,14.0,23.0,62,0.00,BKN,,1.09,WeatherDisplay:10.37,2013-01-31 18:03:00,
2013-01-31 13:13:00,39.2,24.8,29.20,West,276,15.0,32.0,56,0.00,BKN,,1.09,WeatherDisplay:10.37,2013-01-31 18:13:00,
2013-01-31 13:23:00,39.1,24.3,29.21,West,268,9.0,30.0,55,0.00,BKN,,1.09,WeatherDisplay:10.37,2013-01-31 18:23:00,
2013-01-31 13:33:00,39.9,24.1,29.21,West,274,10.0,22.0,53,0.00,BKN,,1.09,WeatherDisplay:10.37,2013-01-31 18:33:00,
2013-01-31 13:43:00,40.3,23.6,29.21,West,261,17.0,30.0,51,0.00,BKN,,1.09,WeatherDisplay:10.37,2013-01-31 18:43:00,
2013-01-31 13:53:00,40.1,22.0,29.22,West,270,13.0,30.0,48,0.00,BKN,,1.09,WeatherDisplay:10.37,2013-01-31 18:53:00,
2013-01-31 14:03:00,40.7,23.0,29.22,WNW,290,8.0,23.0,49,0.00,SCT,,1.09,WeatherDisplay:10.37,2013-01-31 19:03:00,
2013-01-31 14:13:00,40.5,22.8,29.23,West,262,8.0,22.0,49,0.00,SCT,,1.09,WeatherDisplay:10.37,2013-01-31 19:13:00,
2013-01-31 14:23:00,40.0,20.9,29.25,West,269,10.0,31.0,46,0.00,SCT,,1.09,WeatherDisplay:10.37,2013-01-31 19:23:00,
2013-01-31 14:33:00,40.4,20.2,29.25,West,274,10.0,22.0,44,0.00,SCT,,1.09,WeatherDisplay:10.37,2013-01-31 19:33:00,
2013-01-31 14:43:00,40.2,18.9,29.27,West,266,14.0,27.0,42,0.00,SCT,,1.09,WeatherDisplay:10.37,2013-01-31 19:43:00,
2013-01-31 14:53:00,40.0,18.1,29.27,West,263,12.0,23.0,41,0.00,SCT,,1.09,WeatherDisplay:10.37,2013-01-31 19:53:00,
2013-01-31 15:03:00,40.1,19.9,29.27,West,265,6.0,22.0,44,0.00,SCT,,1.09,WeatherDisplay:10.37,2013-01-31 20:03:00,
2013-01-31 15:13:00,40.0,20.3,29.28,WSW,250,6.0,20.0,45,0.00,SCT,,1.09,WeatherDisplay:10.37,2013-01-31 20:13:00,
2013-01-31 15:23:00,39.4,20.3,29.29,West,263,3.0,20.0,46,0.00,SCT,,1.09,WeatherDisplay:10.37,2013-01-31 20:23:00,
2013-01-31 15:33:00,38.9,18.8,29.30,West,273,9.0,22.0,44,0.00,SCT,,1.09,WeatherDisplay:10.37,2013-01-31 20:33:00,
2013-01-31 15:43:00,38.7,19.6,29.30,West,272,6.0,17.0,46,0.00,SCT,,1.09,WeatherDisplay:10.37,2013-01-31 20:43:00,
2013-01-31 15:53:00,38.6,20.1,29.31,West,270,7.0,16.0,47,0.00,SCT,,1.09,WeatherDisplay:10.37,2013-01-31 20:53:00,
2013-01-31 16:03:00,38.4,19.9,29.32,WSW,252,8.0,18.0,47,0.00,SCT,,1.09,WeatherDisplay:10.37,2013-01-31 21:03:00,
2013-01-31 16:13:00,38.3,19.3,29.33,WSW,258,7.0,18.0,46,0.00,OVC,,1.09,WeatherDisplay:10.37,2013-01-31 21:13:00,
2013-01-31 16:23:00,38.0,18.5,29.33,West,271,5.0,21.0,45,0.00,OVC,,1.09,WeatherDisplay:10.37,2013-01-31 21:23:00,
2013-01-31 16:33:00,37.9,17.9,29.33,West,269,9.0,20.0,44,0.00,OVC,,1.09,WeatherDisplay:10.37,2013-01-31 21:33:00,
2013-01-31 16:43:00,37.4,19.0,29.33,West,276,6.0,17.0,47,0.00,OVC,,1.09,WeatherDisplay:10.37,2013-01-31 21:43:00,
2013-01-31 16:53:00,36.7,18.8,29.35,West,277,10.0,18.0,48,0.00,OVC,,1.09,WeatherDisplay:10.37,2013-01-31 21:53:00,
2013-01-31 17:03:00,36.3,18.9,29.35,West,275,6.0,17.0,49,0.00,OVC,,1.09,WeatherDisplay:10.37,2013-01-31 22:03:00,
2013-01-31 17:13:00,36.0,18.7,29.36,West,259,9.0,16.0,49,0.00,BKN,,1.09,WeatherDisplay:10.37,2013-01-31 22:13:00,
2013-01-31 17:23:00,35.7,18.9,29.37,West,281,8.0,20.0,50,0.00,BKN,,1.09,WeatherDisplay:10.37,2013-01-31 22:23:00,
2013-01-31 17:33:00,35.4,18.6,29.38,WNW,284,7.0,15.0,50,0.00,BKN,,1.09,WeatherDisplay:10.37,2013-01-31 22:33:00,
2013-01-31 17:43:00,35.3,18.5,29.39,NW,325,9.0,21.0,50,0.00,BKN,,1.09,WeatherDisplay:10.37,2013-01-31 22:43:00,
2013-01-31 17:53:00,35.3,18.5,29.40,West,271,8.0,14.0,50,0.00,BKN,,1.09,WeatherDisplay:10.37,2013-01-31 22:53:00,
2013-01-31 18:03:00,35.1,18.8,29.40,West,279,6.0,14.0,51,0.00,BKN,,1.09,WeatherDisplay:10.37,2013-01-31 23:03:00,
2013-01-31 18:13:00,35.0,18.2,29.41,West,281,7.0,20.0,50,0.00,OVC,,1.09,WeatherDisplay:10.37,2013-01-31 23:13:00,
2013-01-31 18:23:00,34.6,18.3,29.42,West,280,8.0,23.0,51,0.00,OVC,,1.09,WeatherDisplay:10.37,2013-01-31 23:23:00,
2013-01-31 18:33:00,34.3,18.5,29.43,West,281,6.0,23.0,52,0.00,OVC,,1.09,WeatherDisplay:10.37,2013-01-31 23:33:00,
2013-01-31 18:43:00,33.8,18.0,29.44,WNW,286,6.0,24.0,52,0.00,OVC,,1.09,WeatherDisplay:10.37,2013-01-31 23:43:00,
2013-01-31 18:53:00,33.5,17.3,29.44,West,274,5.0,22.0,51,0.00,OVC,,1.09,WeatherDisplay:10.37,2013-01-31 23:53:00,
2013-01-31 19:03:00,33.1,16.5,29.44,WNW,284,8.0,20.0,50,0.00,OVC,,1.09,WeatherDisplay:10.37,2013-02-01 00:03:00,
2013-01-31 19:13:00,32.8,16.2,29.45,WNW,282,6.0,15.0,50,0.00,OVC,,1.09,WeatherDisplay:10.37,2013-02-01 00:13:00,
2013-01-31 19:23:00,32.9,15.3,29.46,WNW,286,8.0,29.0,48,0.00,FEW,,1.09,WeatherDisplay:10.37,2013-02-01 00:23:00,
2013-01-31 19:33:00,32.8,14.8,29.47,West,260,9.0,18.0,47,0.00,FEW,,1.09,WeatherDisplay:10.37,2013-02-01 00:33:00,
2013-01-31 19:43:00,32.6,13.6,29.47,West,274,8.0,17.0,45,0.00,FEW,,1.09,WeatherDisplay:10.37,2013-02-01 00:43:00,
2013-01-31 19:53:00,32.5,13.5,29.48,WNW,282,9.0,20.0,45,0.00,FEW,,1.09,WeatherDisplay:10.37,2013-02-01 00:53:00,
2013-01-31 20:03:00,32.3,13.8,29.48,West,279,7.0,18.0,46,0.00,FEW,,1.09,WeatherDisplay:10.37,2013-02-01 01:03:00,
2013-01-31 20:13:00,32.3,13.8,29.48,West,266,6.0,20.0,46,0.00,OVC,,1.09,WeatherDisplay:10.37,2013-02-01 01:13:00,
2013-01-31 20:23:00,32.2,13.7,29.48,West,276,6.0,20.0,46,0.00,OVC,,1.09,WeatherDisplay:10.37,2013-02-01 01:23:00,
2013-01-31 20:33:00,32.2,14.2,29.49,West,276,7.0,16.0,47,0.00,OVC,,1.09,WeatherDisplay:10.37,2013-02-01 01:33:00,
2013-01-31 20:43:00,32.2,14.7,29.50,West,278,6.0,16.0,48,0.00,OVC,,1.09,WeatherDisplay:10.37,2013-02-01 01:43:00,
2013-01-31 20:53:00,30.0,20.0,29.51,WNW,293,13.0,26.0,66,0.00,OVC,,1.09,WeatherDisplay:10.37,2013-02-01 01:53:00,
2013-01-31 21:03:00,28.4,20.5,29.51,West,272,7.0,22.0,72,0.00,OVC,,1.09,WeatherDisplay:10.37,2013-02-01 02:03:00,
2013-01-31 21:13:00,27.9,21.0,29.52,WSW,258,5.0,18.0,75,0.00,OVC,,1.09,WeatherDisplay:10.37,2013-02-01 02:13:00,
2013-01-31 21:23:00,27.9,20.7,29.52,West,275,5.0,17.0,74,0.00,-SN,,1.09,WeatherDisplay:10.37,2013-02-01 02:23:00,
2013-01-31 21:33:00,28.1,19.6,29.52,West,263,3.0,14.0,70,0.00,-SN,,1.09,WeatherDisplay:10.37,2013-02-01 02:33:00,
2013-01-31 21:43:00,28.6,18.0,29.53,West,277,7.0,17.0,64,0.00,-SN,,1.09,WeatherDisplay:10.37,2013-02-01 02:43:00,
2013-01-31 21:53:00,29.2,16.2,29.53,West,276,7.0,21.0,58,0.00,-SN,,1.09,WeatherDisplay:10.37,2013-02-01 02:53:00,
2013-01-31 22:03:00,29.2,15.4,29.54,West,278,13.0,21.0,56,0.00,-SN,,1.09,WeatherDisplay:10.37,2013-02-01 03:03:00,
2013-01-31 22:13:00,28.9,15.6,29.54,WNW,284,10.0,20.0,57,0.00,BKN,,1.09,WeatherDisplay:10.37,2013-02-01 03:13:00,
2013-01-31 22:23:00,28.6,14.9,29.54,West,280,8.0,17.0,56,0.00,BKN,,1.09,WeatherDisplay:10.37,2013-02-01 03:23:00,
2013-01-31 22:33:00,28.5,14.3,29.54,West,275,6.0,20.0,55,0.00,BKN,,1.09,WeatherDisplay:10.37,2013-02-01 03:33:00,
2013-01-31 22:43:00,28.3,13.3,29.55,West,273,5.0,23.0,53,0.00,BKN,,1.09,WeatherDisplay:10.37,2013-02-01 03:43:00,
2013-01-31 22:53:00,28.1,13.6,29.55,West,268,5.0,14.0,54,0.00,BKN,,1.09,WeatherDisplay:10.37,2013-02-01 03:53:00,
2013-01-31 23:03:00,28.2,13.7,29.55,West,260,7.0,12.0,54,0.00,BKN,,1.09,WeatherDisplay:10.37,2013-02-01 04:03:00,
2013-01-31 23:13:00,28.2,15.3,29.55,West,260,6.0,14.0,58,0.00,BKN,,1.09,WeatherDisplay:10.37,2013-02-01 04:13:00,
2013-01-31 23:23:00,27.6,17.4,29.56,West,262,7.0,25.0,65,0.00,SCT,,1.09,WeatherDisplay:10.37,2013-02-01 04:23:00,
2013-01-31 23:33:00,26.9,17.7,29.56,West,269,8.0,16.0,68,0.00,SCT,,1.09,WeatherDisplay:10.37,2013-02-01 04:33:00,
2013-01-31 23:43:00,26.9,17.1,29.56,WSW,257,5.0,15.0,66,0.00,SCT,,1.09,WeatherDisplay:10.37,2013-02-01 04:43:00,
2013-01-31 23:53:00,26.9,18.7,29.57,West,269,8.0,20.0,71,0.00,SCT,,1.09,WeatherDisplay:10.37,2013-02-01 04:53:00,